Regional Weather Roundup
Issued by NWS

Home | Current Version | Previous Version | Text Only | Print | Product List | Glossary Off
Versions: 1 2 3 4 5 6 7 8 9 10 11 12 13 14 15 16 17 18 19 20 21 22 23 24 25 26 27 28 29 30 31 32 33 34 35 36 37 38 39 40 41 42 43 44 45 46 47 48 49 50

000
ASUS44 KMEG 242000
RWRTN
TENNESSEE HOURLY STATE WEATHER ROUNDUP
NATIONAL WEATHER SERVICE MEMPHIS TN
300 PM CDT SUN MAY 24 2015

TNZ002-004-019-021-049-052-054-088>092-242100-
WEST TENNESSEE

CITY           SKY/WX    TMP DP  RH WIND       PRES   REMARKS
MEMPHIS INTL   PTSUNNY   87  67  51 S16G26    30.01F HX  90
NWS MEMPHIS      N/A     83 N/A N/A MISG        N/A
JACKSON        MOSUNNY   84  67  56 S13G21    30.06F
DYERSBURG      PTSUNNY   84  57  39 SE14G21   30.03F
PARIS          MOSUNNY   82  64  54 S14       30.08F
LEXINGTON      MOSUNNY   82  66  57 S9        30.08F
$$

TNZ008-025-027-028-033-062-065-066-242100-
NORTH MIDDLE TENNESSEE

CITY           SKY/WX    TMP DP  RH WIND       PRES   REMARKS
NASHVILLE      PTSUNNY   84  62  47 SE16G24   30.16F
CLARKSVILLE    MOSUNNY   84  65  52 S13G20    30.11F
COOKEVILLE     MOSUNNY   81  63  54 S9        30.21F
CROSSVILLE     SUNNY     78  56  46 VRB7      30.27F
$$

TNZ061-075-076-078-094-096-097-242100-
SOUTH MIDDLE TENNESSEE

CITY           SKY/WX    TMP DP  RH WIND       PRES   REMARKS
FAYETTEVILLE   PTSUNNY  N/A N/A N/A MISG      30.18F
TULLAHOMA      PTSUNNY   81  63  54 S8        30.21F
WINCHESTER     PTSUNNY   81  64  57 SE14      30.20F
MCMINNVILLE    MOSUNNY   82  64  54 SE8       30.21F
COLUMBIA       MOSUNNY   86  68  54 S13       30.13F
SHELBYVILLE    PTSUNNY   82  66  57 S10       30.19F
$$

TNZ017-018-042-046-047-242100-
NORTHEAST TENNESSEE

CITY           SKY/WX    TMP DP  RH WIND       PRES   REMARKS
TRI CITIES     MOSUNNY   82  46  28 MISG      30.27F
ELIZABETHTON   CLEAR     81  48  32 SW7       30.27F
$$

TNZ012-013-036-069-073-074-242100-
CENTRAL EAST TENNESSEE

CITY           SKY/WX    TMP DP  RH WIND       PRES   REMARKS
KNOXVILLE      MOSUNNY   83  53  35 VRB6      30.24F
OAK RIDGE      SUNNY     83  52  34 VRB5      30.26F
GATLINBURG       N/A     81  54  39 VRB7      30.24F
$$

TNZ083-085-099-242100-
SOUTHEAST TENNESSEE

CITY           SKY/WX    TMP DP  RH WIND       PRES   REMARKS
CHATTANOOGA    PTSUNNY   81  59  47 SE10      30.23F
$$

SKY/WX REPORTED AS FAIR MEANS FEW OR NO CLOUDS BELOW
12 THOUSAND FEET.




USA.gov is the U.S. government's official web portal to all federal, state and local government web resources and services.